Погода в Новоданиловке

Украина / Запорожская область     46°39′02″N   35°01′05″E
темп.,
°C
ветер,
м/с
пор.,
м/с
влажн.,
%
обл.,
%
осадки,
мм/ч
давл.,
гПа
погр.,
м
25 июня, сб
сб2500:00+15в347515 0.0 100858
03:00+13св46893 0.0 100992
06:00+14св47835 0.0 1010169
09:00+22всв565515 0.0 10101330
12:00+25вюв674685 1.3 10112051
15:00+26в7739100 1.3 10102204
18:00+25вюв6744100 0.0 10121552
21:00+19вюв227244 0.1 101213
26 июня, вс
вс2600:00+18св2277100 0.3 101322
03:00+17св3582100 0.4 101383
06:00+17св4778100 0.0 1013169
09:00+23всв5659100 0.0 1014656
12:00+28св4539100 0.0 10142187
15:00+30св5632100 0.0 10122861
18:00+20юв5981100 0.8 1014352
21:00+19зсз1189100 1.4 101525
27 июня, пн
пн2700:00+19ссз4987100 0.1 1014216
03:00+20св51170100 0.1 1014368
06:00+20св61368100 0.0 1014393
09:00+24всв7949100 0.0 1015923
12:00+25всв7850100 0.0 10161182
15:00+25юв91055100 0.0 1015932
18:00+20юв4983100 0.0 1017470
21:00+20всв3882100 0.1 1017405
28 июня, вт
вт2800:00+20св3776100 0.0 1017249
03:00+20с5107527 0.0 1016266
06:00+20ссв51069100 0.0 1015277
09:00+25всв6936100 0.0 1015663
12:00+28в6728100 0.0 10152077
15:00+29юв6732100 0.0 10151796
18:00+27ююв443893 0.0 1015632
21:00+22юз2248100 0.0 101518
29 июня, ср
ср2900:00+20сз335399 0.0 101542
03:00+20ссв355698 0.0 101571
06:00+21св41076100 0.1 1015252
09:00+28в6849100 0.1 1015995
12:00+32в783633 0.0 10152697
15:00+33в673021 0.0 10142587
18:00+31вюв563287 0.0 10142030
21:00+27св474020 0.0 1015314